Temperature
5 5 5 5 5 5 5 5 5 5 5 6 6 6 6 5 5 5 5 5 5 5 5 5 5 5 4 4 4 4 4 4 4 4 4 4 4 4 4 4 4 4 4
5 5 5 5 5 5 5 5 5 5 5 5 5 5 5 5 5 5 5 5 5 5 5 4 4 4 4 4 4 4 4 4 3 4 4 4 4 3 3 3 3 3 3
5 5 5 5 5 5 5 5 4 5 5 5 5 5 5 5 5 5 5 5 4 4 4 4 4 4 4 4 3 3 3 3 3 3 3 3 3 3 3 3 3 2 2
5 5 5 5 5 5 5 4 4 4 4 4 4 4 4 4 4 4 4 4 4 4 4 4 3 3 3 3 3 3 3 2 2 2 2 3 3 2 2 2 2 2 2
5 5 5 4 4 4 4 4 4 4 4 4 4 4 4 4 4 4 4 4 4 4 3 3 3 3 3 3 2 2 2 2 2 2 2 2 2 2 2 1 1 1 1
5 5 4 4 4 4 4 4 4 4 4 4 4 4 4 4 4 4 3 3 3 3 3 3 3 3 2 2 2 2 2 1 1 1 1 1 1 1 1 1 0 0 -0
4 4 4 4 4 4 3 3 3 3 3 3 3 3 3 3 3 3 3 3 3 3 3 3 2 2 2 2 2 2 1 1 1 1 1 1 1 0 0 -0 -0 -0 -1
4 4 4 3 3 3 3 3 3 3 3 3 3 3 3 3 3 2 2 2 2 2 2 2 2 2 2 1 1 1 1 1 0 0 0 0 -0 -0 -1 -1 -1 -1 -1
3 3 3 3 3 3 3 3 3 3 3 2 2 2 2 2 2 2 2 2 2 2 2 1 1 1 1 1 1 1 1 0 0 -0 -0 -0 -1 -1 -1 -1 -1 -2 -2
3 3 3 3 3 3 3 2 2 2 2 2 2 2 2 2 2 1 1 1 1 1 1 1 1 1 1 0 0 0 0 0 -0 -1 -1 -1 -1 -1 -1 -2 -2 -2 -2
3 3 3 2 2 2 2 2 2 2 2 2 2 1 1 1 1 1 1 0 1 0 0 1 0 0 -0 -0 -1 -0 -0 -1 -1 -1 -1 -1 -1 -2 -2 -2 -2 -2 -3
2 2 2 2 2 2 2 2 1 1 1 1 1 1 1 1 0 0 0 0 -0 -0 -0 -0 -0 -0 -1 -1 -1 -1 -1 -1 -2 -2 -2 -2 -2 -2 -2 -2 -3 -3 -3
2 2 2 2 1 1 1 1 1 1 1 0 0 0 -0 -0 -0 -0 -0 -0 -1 -1 -1 -1 -1 -1 -1 -1 -1 -2 -2 -2 -2 -2 -2 -2 -3 -3 -3 -3 -3 -3 -3
1 1 1 1 1 1 1 1 0 0 0 -0 -1 -1 -1 -1 -1 -1 -1 -1 -1 -1 -1 -2 -2 -2 -2 -2 -2 -2 -2 -3 -3 -3 -3 -3 -3 -3 -3 -3 -4 -4 -4
1 1 1 1 1 0 0 0 -0 -0 -1 -1 -1 -1 -1 -1 -1 -1 -1 -2 -2 -2 -2 -2 -2 -2 -3 -3 -3 -3 -3 -3 -3 -3 -3 -3 -4 -4 -4 -4 -4 -4 -4
0 0 0 -0 -0 -0 -0 -0 -1 -1 -1 -1 -2 -2 -2 -2 -2 -2 -2 -2 -2 -2 -3 -3 -3 -3 -3 -3 -3 -3 -3 -3 -4 -4 -4 -4 -4 -4 -4 -4 -5 -5 -5
-0 -0 -0 -1 -1 -1 -1 -1 -1 -1 -1 -2 -2 -2 -2 -2 -2 -2 -2 -3 -3 -3 -3 -3 -3 -3 -4 -4 -4 -4 -4 -4 -4 -4 -4 -4 -4 -5 -5 -5 -5 -5 -5
-1 -1 -1 -1 -1 -1 -2 -2 -2 -2 -2 -2 -2 -2 -2 -3 -3 -3 -3 -3 -3 -3 -3 -3 -4 -4 -4 -4 -4 -4 -4 -4 -5 -5 -5 -5 -5 -5 -5 -5 -6 -6 -6
-1 -1 -1 -1 -2 -2 -2 -2 -3 -3 -3 -3 -3 -3 -3 -3 -3 -3 -3 -3 -4 -4 -4 -4 -4 -4 -4 -4 -4 -5 -5 -5 -5 -5 -5 -5 -5 -6 -6 -6 -6 -6 -7
-2 -2 -2 -2 -2 -3 -3 -3 -3 -3 -3 -3 -3 -3 -3 -4 -4 -4 -4 -4 -4 -4 -4 -4 -5 -5 -5 -5 -5 -5 -5 -5 -5 -5 -6 -6 -6 -6 -6 -6 -7 -7 -7
-2 -2 -2 -3 -3 -3 -3 -4 -4 -4 -4 -4 -4 -4 -4 -4 -4 -4 -4 -4 -4 -5 -5 -5 -5 -5 -5 -5 -5 -5 -5 -6 -6 -6 -6 -6 -6 -6 -7 -7 -7 -7 -8
-3 -3 -3 -3 -4 -4 -4 -4 -4 -4 -4 -4 -4 -4 -4 -5 -5 -5 -5 -5 -5 -5 -5 -5 -5 -5 -5 -5 -6 -6 -6 -6 -6 -6 -6 -7 -7 -7 -7 -7 -7 -8 -8
-4 -4 -4 -4 -4 -4 -5 -5 -5 -5 -5 -5 -5 -5 -5 -5 -5 -5 -5 -5 -5 -6 -6 -6 -6 -6 -6 -6 -6 -6 -6 -6 -6 -7 -7 -7 -7 -7 -7 -8 -8 -8 -8
-4 -5 -5 -5 -5 -5 -5 -5 -5 -5 -5 -6 -6 -6 -6 -6 -6 -6 -6 -6 -6 -6 -6 -6 -6 -6 -6 -6 -6 -6 -6 -7 -7 -7 -7 -7 -7 -8 -8 -8 -8 -8 -8
-5 -5 -5 -5 -5 -5 -6 -6 -6 -6 -6 -6 -6 -6 -6 -6 -6 -6 -6 -6 -6 -6 -6 -6 -6 -7 -7 -7 -7 -7 -7 -7 -7 -7 -8 -8 -8 -8 -8 -8 -8 -9 -9
-6 -6 -6 -6 -6 -6 -6 -6 -6 -6 -6 -7 -7 -7 -7 -7 -7 -7 -7 -7 -7 -7 -7 -7 -7 -7 -7 -7 -7 -7 -7 -7 -8 -8 -8 -8 -8 -8 -8 -8 -9 -9 -9
Wind_Speed
2 2 2 2 3 3 3 3 2 2 2 2 2 2 2 3 3 3 3 3 4 4 4 4 5 4 3 3 3 3 3 4 5 4 3 2 3 4 4 6 7 8 8
2 2 2 2 3 3 3 3 3 3 2 3 2 2 3 3 3 4 4 4 5 5 5 5 5 4 5 4 4 4 4 4 5 6 4 2 4 4 4 4 5 7 8
2 2 2 2 3 3 3 3 3 3 3 3 3 3 4 4 4 4 4 5 5 5 6 6 6 5 6 5 5 5 4 4 4 4 4 3 2 2 3 3 4 5 7
1 2 2 3 3 3 3 3 3 3 3 3 4 4 4 4 4 4 4 4 5 5 6 6 6 7 7 6 5 5 4 4 4 4 4 3 3 2 2 3 4 3 4
1 2 3 3 2 2 3 3 2 2 3 3 3 3 4 4 4 4 4 5 5 5 5 6 6 7 9 7 6 5 5 5 4 4 4 4 3 3 4 3 4 4 4
1 2 2 1 1 2 2 2 2 2 2 3 3 4 4 4 6 7 5 4 5 5 6 5 5 6 8 10 10 9 9 7 6 5 5 6 6 5 4 4 3 3 5
1 2 1 1 1 2 2 2 2 3 3 3 3 4 5 6 7 8 7 4 5 5 6 5 5 5 7 6 9 9 10 11 10 7 7 8 6 6 5 5 5 5 6
1 2 2 2 2 2 2 2 3 2 3 3 4 4 5 6 8 8 8 5 4 5 6 6 6 6 6 6 6 6 6 7 8 7 7 7 6 6 6 6 5 4 3
2 2 2 2 2 2 3 3 3 2 3 4 4 4 5 6 8 8 7 4 4 5 6 6 6 6 9 8 5 6 6 6 7 9 10 9 9 8 6 2 2 3 4
3 3 3 2 3 3 4 3 3 3 3 3 4 4 5 5 7 8 6 3 4 4 4 5 7 7 9 8 6 6 7 5 3 4 5 6 6 7 7 5 4 4 3
3 3 3 3 3 3 3 2 2 2 3 3 4 4 4 5 7 7 7 4 4 4 4 4 4 8 9 9 7 5 7 5 3 3 3 2 2 3 3 4 4 4 4
2 2 3 3 3 2 2 2 2 2 3 3 3 4 4 4 5 6 7 7 5 4 4 4 5 8 8 7 6 6 7 4 2 2 2 3 3 3 2 3 3 4 4
2 3 3 3 3 2 2 2 2 2 2 3 3 4 4 3 4 7 7 7 7 4 4 6 7 7 6 5 5 6 4 2 3 3 3 3 3 3 2 1 1 1 2
2 3 3 3 3 3 2 2 2 2 3 3 4 4 4 4 4 3 4 4 6 5 3 4 5 5 3 3 3 2 2 3 3 3 3 2 1 1 2 1 1 1 1
2 3 3 3 3 3 3 2 3 3 4 4 4 4 4 5 6 6 4 3 3 3 2 1 1 1 1 1 1 1 1 1 2 2 2 2 1 1 1 1 1 1 1
2 3 2 3 3 3 3 4 4 4 6 7 7 6 5 7 8 7 7 7 6 4 1 1 2 2 3 3 2 2 2 2 2 2 2 2 2 2 2 1 1 1 2
2 3 3 3 3 3 3 3 4 5 5 5 6 7 6 7 7 7 7 6 5 3 2 2 3 3 3 3 3 3 2 2 2 2 2 2 2 2 2 2 1 1 2
3 3 3 3 3 3 3 3 3 4 5 5 5 6 7 7 7 6 6 4 2 2 2 3 4 4 3 3 3 3 2 2 2 2 2 2 2 2 2 2 2 2 2
3 3 3 3 3 3 3 3 3 4 4 5 5 5 6 6 6 6 3 1 2 3 3 3 3 3 3 3 3 3 2 2 2 2 2 2 2 2 2 2 2 3 3
3 4 4 3 3 3 3 3 3 4 4 4 5 5 4 4 3 3 2 2 2 3 3 3 3 3 3 2 2 2 2 2 3 3 3 2 2 2 3 3 3 3 3
3 3 5 4 3 3 3 4 4 4 4 5 5 6 7 4 4 4 3 3 3 3 3 3 3 3 2 2 2 2 3 3 3 3 3 3 2 2 3 3 3 3 3
3 3 3 3 3 3 4 3 4 4 5 5 5 5 7 4 3 3 3 3 3 3 3 3 2 2 2 2 2 3 3 3 3 3 3 3 3 3 3 3 3 3 3
3 3 4 3 3 4 4 3 3 4 4 4 5 4 4 3 3 3 3 3 3 2 2 2 2 2 2 2 2 3 3 3 3 3 3 3 3 3 3 3 3 3 3
3 3 4 4 3 3 3 4 4 4 4 4 4 4 3 3 3 3 3 3 2 2 2 2 2 3 3 2 2 3 3 3 3 3 4 3 3 3 3 3 3 3 3
3 3 4 4 3 3 3 4 4 4 4 4 4 4 3 3 3 3 3 2 3 2 3 3 2 2 3 3 3 3 4 4 3 3 3 3 3 3 3 3 3 3 3
3 3 3 4 3 3 3 4 4 4 4 4 4 3 3 3 3 3 3 2 2 2 2 3 3 3 4 4 4 4 4 4 4 4 3 2 3 3 3 3 3 3 3
Wind_Direction
196 197 184 186 180 172 183 201 204 207 201 199 206 216 225 219 208 203 217 210 211 224 226 220 227 222 222 220 215 217 221 217 243 262 250 246 227 231 253 254 261 262 266
202 199 198 192 181 188 207 214 202 205 208 208 206 213 231 231 218 207 216 218 217 225 230 227 231 225 228 227 221 223 227 224 229 254 261 244 239 230 232 248 262 264 266
196 191 193 194 196 208 222 222 209 208 218 217 211 217 230 231 225 220 220 223 227 232 230 229 230 221 232 232 227 227 229 233 230 240 257 253 251 238 244 259 262 268 275
195 201 210 211 215 219 226 225 214 209 215 221 223 226 232 233 227 224 225 231 236 239 233 229 228 223 228 229 230 227 224 227 231 238 254 258 252 243 225 249 270 266 274
198 214 230 228 221 223 224 224 222 219 228 229 231 239 242 238 232 231 231 233 235 243 243 236 234 234 235 233 233 225 219 225 231 239 249 257 251 240 240 237 259 276 278
209 228 237 235 232 239 236 227 226 233 245 242 238 239 247 254 257 250 245 236 236 240 249 251 249 244 244 246 244 237 227 227 228 234 246 247 249 241 236 240 244 266 275
254 261 250 234 246 254 252 237 238 241 247 255 252 245 248 257 264 262 257 250 240 240 244 249 256 253 255 245 246 243 239 241 238 234 240 244 243 235 227 235 238 245 256
292 287 275 249 248 255 248 247 249 248 243 249 255 253 256 264 269 269 265 254 246 245 242 243 247 252 247 244 242 241 241 243 242 238 237 242 242 234 224 228 233 247 264
287 284 279 260 257 262 259 259 260 250 252 250 253 251 254 266 269 269 265 250 248 252 250 246 245 245 252 251 243 242 251 257 256 247 249 253 251 249 236 209 219 249 274
277 277 275 262 256 259 259 260 268 258 256 259 265 260 256 264 273 271 263 244 252 261 264 256 252 255 258 254 242 235 246 249 239 247 250 253 246 240 236 223 211 232 259
288 291 290 279 268 265 262 264 271 269 272 273 273 274 264 266 275 270 264 245 245 257 261 262 258 265 268 263 252 241 247 246 223 222 237 248 243 236 237 230 219 224 236
306 302 297 294 288 288 274 282 275 261 270 280 284 293 286 280 279 277 271 261 261 245 252 256 260 267 268 263 254 255 256 243 204 215 236 243 242 244 249 240 241 243 240
319 312 308 309 302 290 270 275 286 276 272 283 281 286 295 295 289 289 283 273 267 255 251 261 267 269 268 260 260 261 254 219 203 224 236 243 238 229 220 227 250 261 273
313 313 314 313 312 309 291 272 269 268 271 278 280 284 292 295 290 289 280 278 276 267 266 268 271 276 276 277 273 267 242 221 217 221 233 241 222 211 222 218 242 270 303
310 312 315 312 304 308 302 281 271 258 257 267 271 272 281 286 285 290 287 270 262 252 261 289 304 295 275 277 274 260 242 233 232 217 219 230 241 233 245 224 214 246 236
305 310 308 306 304 302 303 313 307 289 292 286 281 281 282 285 298 299 295 287 283 269 261 248 248 245 247 247 247 255 240 229 228 222 217 217 225 228 232 232 229 228 241
280 289 295 295 296 297 296 298 310 322 322 310 300 295 292 299 304 304 298 291 282 265 248 245 248 246 244 243 244 243 243 241 230 221 221 216 216 219 217 226 233 242 252
279 282 283 282 285 283 281 281 283 293 306 311 313 308 307 309 309 307 305 306 293 268 256 250 248 245 241 239 240 240 239 239 233 225 224 220 214 220 226 228 227 229 250
283 283 280 280 282 278 276 278 279 281 286 295 304 310 311 311 309 306 308 283 266 269 269 266 259 251 244 239 238 232 227 231 232 225 224 222 220 221 231 231 232 245 251
287 283 285 283 284 282 280 277 278 280 283 286 288 293 304 309 303 297 285 270 264 265 267 267 266 260 251 243 235 226 226 227 224 224 225 223 222 219 227 233 237 238 239
285 287 290 288 277 275 274 273 274 276 280 282 282 285 289 287 284 282 278 271 265 268 271 271 270 268 258 244 237 231 226 226 225 222 219 220 218 226 230 231 233 230 234
285 286 283 275 274 274 278 273 272 273 274 278 285 290 295 289 277 277 277 279 277 271 267 265 266 262 250 236 231 228 229 228 225 217 218 222 226 231 229 229 230 230 231
286 289 292 284 277 281 289 282 276 274 274 275 281 287 291 286 280 276 277 280 282 282 282 276 271 274 276 265 246 229 225 227 226 217 217 222 227 230 227 229 227 230 233
284 284 287 286 284 281 282 283 282 282 281 281 283 284 282 281 280 280 281 282 283 283 285 280 271 269 279 282 272 261 251 243 233 224 212 215 220 228 229 228 227 226 232
289 288 291 288 281 282 284 284 285 285 287 286 285 285 284 283 282 283 283 282 284 285 291 292 284 276 272 276 276 268 259 254 250 237 221 207 209 218 222 225 225 224 229
297 294 293 292 284 280 279 281 282 282 283 285 283 280 278 281 282 281 280 278 285 290 293 291 286 286 285 282 273 263 260 259 254 249 225 206 207 215 214 219 219 224 224
Height
1482 1482 1482 1482 1483 1483 1484 1484 1485 1486 1486 1487 1488 1489 1490 1490 1490 1491 1491 1492 1492 1493 1493 1493 1493 1494 1494 1494 1495 1495 1495 1495 1494 1493 1494 1495 1495 1494 1494 1494 1493 1493 1492
1480 1480 1480 1480 1480 1481 1481 1482 1483 1483 1484 1484 1485 1486 1486 1486 1487 1487 1487 1487 1487 1488 1488 1488 1488 1489 1489 1489 1489 1490 1490 1490 1490 1488 1488 1488 1489 1488 1488 1488 1487 1487 1486
1478 1478 1478 1478 1478 1478 1479 1480 1480 1480 1481 1481 1482 1482 1482 1482 1482 1483 1483 1483 1483 1483 1483 1484 1484 1484 1484 1484 1484 1484 1485 1485 1484 1483 1482 1482 1482 1483 1482 1482 1481 1481 1480
1476 1476 1476 1476 1476 1476 1476 1477 1477 1477 1477 1478 1478 1478 1479 1479 1478 1478 1478 1478 1478 1478 1478 1479 1479 1479 1479 1479 1479 1479 1479 1479 1479 1478 1477 1476 1477 1477 1476 1475 1474 1474 1474
1474 1474 1474 1473 1474 1474 1474 1474 1474 1474 1474 1474 1474 1474 1475 1475 1474 1474 1474 1473 1473 1473 1473 1473 1473 1473 1473 1473 1473 1473 1473 1473 1472 1472 1471 1471 1470 1471 1470 1470 1469 1468 1467
1472 1471 1471 1471 1471 1471 1471 1471 1471 1470 1470 1470 1470 1470 1470 1470 1470 1470 1469 1469 1468 1468 1468 1467 1467 1467 1467 1467 1467 1467 1467 1467 1466 1466 1465 1465 1464 1465 1465 1464 1463 1462 1460
1469 1469 1468 1468 1468 1468 1468 1467 1467 1467 1467 1466 1466 1466 1466 1466 1465 1465 1465 1464 1463 1463 1462 1462 1461 1461 1461 1461 1460 1460 1460 1460 1460 1460 1459 1459 1459 1459 1459 1458 1457 1456 1455
1467 1466 1466 1465 1465 1465 1464 1464 1463 1463 1463 1462 1462 1462 1461 1461 1461 1460 1460 1459 1458 1457 1457 1456 1456 1455 1455 1454 1454 1454 1453 1453 1453 1453 1453 1453 1453 1453 1453 1453 1452 1451 1450
1464 1464 1463 1463 1462 1461 1461 1460 1460 1459 1459 1458 1458 1457 1456 1456 1456 1455 1455 1453 1452 1451 1451 1450 1450 1449 1449 1449 1448 1447 1447 1447 1447 1447 1447 1447 1447 1447 1447 1447 1446 1445 1444
1462 1461 1461 1460 1459 1458 1457 1457 1456 1456 1455 1454 1453 1453 1452 1451 1451 1450 1450 1448 1447 1446 1445 1444 1444 1443 1443 1442 1442 1441 1440 1440 1440 1440 1441 1441 1441 1441 1441 1441 1441 1440 1439
1459 1458 1458 1457 1456 1455 1454 1454 1453 1452 1451 1450 1449 1448 1447 1446 1446 1445 1444 1443 1442 1440 1439 1438 1438 1437 1437 1436 1436 1435 1435 1435 1434 1434 1434 1435 1435 1435 1436 1436 1435 1435 1434
1456 1455 1455 1454 1453 1452 1451 1450 1449 1448 1447 1445 1444 1443 1442 1442 1441 1440 1439 1438 1437 1436 1434 1434 1433 1432 1431 1431 1430 1430 1429 1429 1429 1429 1429 1429 1429 1430 1430 1430 1430 1430 1429
1453 1452 1451 1451 1450 1449 1447 1446 1445 1444 1443 1441 1440 1439 1438 1437 1436 1436 1435 1433 1432 1431 1430 1429 1428 1427 1426 1426 1425 1425 1424 1424 1424 1424 1424 1424 1425 1425 1425 1425 1425 1424 1424
1450 1449 1448 1447 1446 1445 1444 1443 1442 1440 1439 1437 1436 1435 1434 1433 1432 1431 1430 1429 1428 1427 1426 1424 1424 1423 1422 1421 1421 1420 1420 1420 1420 1420 1420 1420 1420 1421 1421 1420 1420 1419 1418
1447 1446 1445 1444 1443 1441 1440 1439 1438 1437 1436 1435 1433 1432 1430 1429 1428 1428 1426 1425 1423 1422 1421 1420 1419 1418 1417 1417 1416 1416 1416 1416 1416 1416 1416 1416 1416 1416 1416 1416 1415 1414 1414
1444 1443 1442 1440 1439 1438 1436 1435 1434 1434 1432 1431 1430 1429 1427 1426 1425 1423 1422 1421 1419 1418 1417 1415 1414 1414 1413 1413 1412 1412 1412 1412 1412 1412 1412 1412 1412 1411 1411 1411 1411 1410 1410
1441 1440 1438 1437 1436 1434 1433 1432 1430 1429 1428 1427 1426 1425 1423 1422 1421 1419 1418 1416 1415 1414 1413 1411 1411 1410 1410 1409 1409 1409 1408 1408 1408 1408 1408 1408 1408 1407 1407 1407 1407 1406 1406
1438 1436 1435 1433 1432 1431 1430 1429 1427 1425 1424 1422 1422 1421 1419 1418 1417 1415 1414 1413 1411 1410 1409 1408 1407 1407 1406 1406 1405 1405 1405 1405 1404 1404 1404 1404 1404 1404 1403 1403 1403 1403 1402
1434 1432 1431 1430 1429 1427 1426 1425 1424 1422 1421 1419 1418 1417 1416 1414 1413 1412 1410 1409 1407 1406 1405 1404 1403 1403 1402 1402 1402 1402 1401 1401 1401 1401 1400 1400 1400 1400 1400 1400 1400 1399 1399
1429 1428 1427 1426 1425 1424 1422 1421 1420 1419 1417 1416 1414 1413 1411 1410 1408 1407 1406 1405 1403 1402 1401 1400 1400 1399 1399 1398 1398 1398 1398 1398 1397 1397 1397 1397 1397 1397 1397 1397 1397 1396 1396
1425 1424 1423 1422 1421 1420 1418 1417 1416 1415 1413 1412 1410 1409 1408 1406 1405 1403 1402 1401 1400 1399 1398 1397 1396 1396 1395 1395 1395 1394 1394 1394 1394 1394 1394 1394 1394 1394 1393 1393 1393 1393 1393
1420 1419 1418 1417 1416 1415 1414 1413 1412 1411 1409 1408 1406 1405 1404 1402 1401 1399 1398 1397 1396 1395 1394 1393 1392 1392 1392 1391 1391 1391 1390 1390 1390 1390 1390 1390 1390 1390 1390 1390 1390 1390 1390
1416 1415 1414 1413 1412 1411 1410 1409 1408 1406 1405 1403 1402 1401 1399 1398 1397 1396 1395 1394 1393 1392 1391 1390 1389 1388 1388 1388 1388 1387 1387 1387 1387 1387 1387 1387 1387 1387 1387 1387 1387 1387 1387
1412 1411 1410 1408 1407 1406 1405 1404 1403 1402 1400 1399 1398 1397 1395 1394 1393 1392 1391 1390 1389 1388 1387 1387 1386 1385 1385 1384 1384 1384 1383 1383 1383 1383 1383 1383 1383 1383 1384 1384 1384 1384 1384
1408 1407 1405 1404 1403 1402 1401 1400 1398 1397 1396 1395 1394 1393 1392 1391 1389 1389 1388 1387 1386 1385 1384 1383 1382 1382 1381 1381 1381 1380 1380 1380 1380 1380 1380 1380 1380 1380 1380 1380 1381 1381 1381
1404 1403 1401 1400 1399 1398 1396 1395 1394 1393 1392 1390 1390 1389 1388 1387 1386 1385 1384 1383 1382 1381 1381 1380 1379 1379 1378 1378 1377 1377 1377 1377 1377 1377 1377 1377 1377 1377 1377 1378 1378 1378 1378